User: anonymous   Login
Location: Unspecified
(0.0000°N, 0.0000°E)
Time: 06:06:44
(UTC+00:00)
Language:

USA 187 - Orbit

View from above orbital plane
View from above orbital plane
View from above satellite
View from above satellite

Ground track
Ground track

The orbit data is extracted from the following two-line orbital elements,

1 29240U 06024A   18110.84651499 0.00000000  00000-0  00000-0 0    09
2 29240   1.3202  75.1994 0015933 192.8579 167.1136  0.98600128    03
Epoch (UTC): 20 April 2018 20:18:58
Eccentricity: 0.0015933
inclination: 1.3202°
perigee height: 36193 km
apogee height: 36329 km
right ascension of ascending node: 75.1994°
argument of perigee: 192.8579°
revolutions per day: 0.98600128
mean anomaly at epoch: 167.1136°
orbit number at epoch: 0

The dashed part of the orbit path shows where the satellite is in the earth's shadow,  

DLR